Year,Month,Day,Hour,Minute,Value (Times are PST for temperature in C)
2017,07,05,00,00,15.00
2017,07,05,00,01,15.00
2017,07,05,00,02,15.00
2017,07,05,00,03,15.00
2017,07,05,00,04,15.00
2017,07,05,00,05,15.00
2017,07,05,00,06,15.00
2017,07,05,00,07,15.00
2017,07,05,00,08,15.00
2017,07,05,00,09,15.00
2017,07,05,00,10,15.00
2017,07,05,00,11,15.00
2017,07,05,00,12,15.00
2017,07,05,00,13,15.00
2017,07,05,00,14,15.00
2017,07,05,00,15,15.00
2017,07,05,00,16,14.90
2017,07,05,00,17,14.90
2017,07,05,00,18,14.90
2017,07,05,00,19,14.90
2017,07,05,00,20,14.90
2017,07,05,00,21,14.80
2017,07,05,00,22,14.80
2017,07,05,00,23,14.80
2017,07,05,00,24,14.80
2017,07,05,00,25,14.80
2017,07,05,00,26,14.80
2017,07,05,00,27,14.80
2017,07,05,00,28,14.80
2017,07,05,00,29,14.80
2017,07,05,00,30,14.80
2017,07,05,00,31,14.80
2017,07,05,00,32,14.80
2017,07,05,00,33,14.80
2017,07,05,00,34,14.80
2017,07,05,00,35,14.80
2017,07,05,00,36,14.80
2017,07,05,00,37,14.80
2017,07,05,00,38,14.80
2017,07,05,00,39,14.80
2017,07,05,00,40,14.70
2017,07,05,00,41,14.70
2017,07,05,00,42,14.70
2017,07,05,00,43,14.70
2017,07,05,00,44,14.70
2017,07,05,00,45,14.70
2017,07,05,00,46,14.70
2017,07,05,00,47,14.60
2017,07,05,00,48,14.60
2017,07,05,00,49,14.60
2017,07,05,00,50,14.60
2017,07,05,00,51,14.60
2017,07,05,00,52,14.60
2017,07,05,00,53,14.50
2017,07,05,00,54,14.50
2017,07,05,00,55,14.50
2017,07,05,00,56,14.50
2017,07,05,00,57,14.50
2017,07,05,00,58,14.50
2017,07,05,00,59,14.50
2017,07,05,01,00,14.50
2017,07,05,01,01,14.50
2017,07,05,01,02,14.50
2017,07,05,01,03,14.50
2017,07,05,01,04,14.40
2017,07,05,01,05,14.40
2017,07,05,01,06,14.50
2017,07,05,01,07,14.50
2017,07,05,01,08,14.50
2017,07,05,01,09,14.50
2017,07,05,01,10,14.50
2017,07,05,01,11,14.50
2017,07,05,01,12,14.50
2017,07,05,01,13,14.50
2017,07,05,01,14,14.50
2017,07,05,01,15,14.50
2017,07,05,01,16,14.50
2017,07,05,01,17,14.50
2017,07,05,01,18,14.50
2017,07,05,01,19,14.50
2017,07,05,01,20,14.50
2017,07,05,01,21,14.50
2017,07,05,01,22,14.50
2017,07,05,01,23,14.50
2017,07,05,01,24,14.50
2017,07,05,01,25,14.50
2017,07,05,01,26,14.50
2017,07,05,01,27,14.50
2017,07,05,01,28,14.50
2017,07,05,01,29,14.50
2017,07,05,01,30,14.60
2017,07,05,01,31,14.60
2017,07,05,01,32,14.60
2017,07,05,01,33,14.60
2017,07,05,01,34,14.60
2017,07,05,01,35,14.60
2017,07,05,01,36,14.60
2017,07,05,01,37,14.60
2017,07,05,01,38,14.60
2017,07,05,01,39,14.70
2017,07,05,01,40,14.70
2017,07,05,01,41,14.70
2017,07,05,01,42,14.70
2017,07,05,01,43,14.70
2017,07,05,01,44,14.70
2017,07,05,01,45,14.70
2017,07,05,01,46,14.70
2017,07,05,01,47,14.70
2017,07,05,01,48,14.70
2017,07,05,01,49,14.70
2017,07,05,01,50,14.70
2017,07,05,01,51,14.70
2017,07,05,01,52,14.70
2017,07,05,01,53,14.70
2017,07,05,01,54,14.70
2017,07,05,01,55,14.60
2017,07,05,01,56,14.60
2017,07,05,01,57,14.60
2017,07,05,01,58,14.60
2017,07,05,01,59,14.60
2017,07,05,02,00,14.60
2017,07,05,02,01,14.60
2017,07,05,02,02,14.60
2017,07,05,02,03,14.60
2017,07,05,02,04,14.50
2017,07,05,02,05,14.50
2017,07,05,02,06,14.50
2017,07,05,02,07,14.50
2017,07,05,02,08,14.50
2017,07,05,02,09,14.40
2017,07,05,02,10,14.40
2017,07,05,02,11,14.40
2017,07,05,02,12,14.40
2017,07,05,02,13,14.40
2017,07,05,02,14,14.40
2017,07,05,02,15,14.30
2017,07,05,02,16,14.30
2017,07,05,02,17,14.30
2017,07,05,02,18,14.30
2017,07,05,02,19,14.30
2017,07,05,02,20,14.30
2017,07,05,02,21,14.30
2017,07,05,02,22,14.30
2017,07,05,02,23,14.20
2017,07,05,02,24,14.20
2017,07,05,02,25,14.20
2017,07,05,02,26,14.20
2017,07,05,02,27,14.20
2017,07,05,02,28,14.20
2017,07,05,02,29,14.20
2017,07,05,02,30,14.20
2017,07,05,02,31,14.20
2017,07,05,02,32,14.20
2017,07,05,02,33,14.20
2017,07,05,02,34,14.10
2017,07,05,02,35,14.10
2017,07,05,02,36,14.10
2017,07,05,02,37,14.10
2017,07,05,02,38,14.10
2017,07,05,02,39,14.10
2017,07,05,02,40,14.00
2017,07,05,02,41,14.00
2017,07,05,02,42,14.00
2017,07,05,02,43,14.00
2017,07,05,02,44,13.90
2017,07,05,02,45,13.90
2017,07,05,02,46,13.90
2017,07,05,02,47,13.90
2017,07,05,02,48,13.90
2017,07,05,02,49,13.80
2017,07,05,02,50,13.80
2017,07,05,02,51,13.80
2017,07,05,02,52,13.80
2017,07,05,02,53,13.80
2017,07,05,02,54,13.80
2017,07,05,02,55,13.80
2017,07,05,02,56,13.80
2017,07,05,02,57,13.70
2017,07,05,02,58,13.70
2017,07,05,02,59,13.70
2017,07,05,03,00,13.70
2017,07,05,03,01,13.70
2017,07,05,03,02,13.70
2017,07,05,03,03,13.70
2017,07,05,03,04,13.70
2017,07,05,03,05,13.70
2017,07,05,03,06,13.70
2017,07,05,03,07,13.60
2017,07,05,03,08,13.60
2017,07,05,03,09,13.60
2017,07,05,03,10,13.60
2017,07,05,03,11,13.60
2017,07,05,03,12,13.60
2017,07,05,03,13,13.50
2017,07,05,03,14,13.50
2017,07,05,03,15,13.50
2017,07,05,03,16,13.50
2017,07,05,03,17,13.50
2017,07,05,03,18,13.40
2017,07,05,03,19,13.40
2017,07,05,03,20,13.40
2017,07,05,03,21,13.40
2017,07,05,03,22,13.40
2017,07,05,03,23,13.40
2017,07,05,03,24,13.40
2017,07,05,03,25,13.40
2017,07,05,03,26,13.40
2017,07,05,03,27,13.40
2017,07,05,03,28,13.40
2017,07,05,03,29,13.40
2017,07,05,03,30,13.40
2017,07,05,03,31,13.40
2017,07,05,03,32,13.40
2017,07,05,03,33,13.40
2017,07,05,03,34,13.40
2017,07,05,03,35,13.40
2017,07,05,03,36,13.30
2017,07,05,03,37,13.30
2017,07,05,03,38,13.30
2017,07,05,03,39,13.40
2017,07,05,03,40,13.40
2017,07,05,03,41,13.40
2017,07,05,03,42,13.40
2017,07,05,03,43,13.40
2017,07,05,03,44,13.40
2017,07,05,03,45,13.40
2017,07,05,03,46,13.40
2017,07,05,03,47,13.40
2017,07,05,03,48,13.30
2017,07,05,03,49,13.30
2017,07,05,03,50,13.30
2017,07,05,03,51,13.30
2017,07,05,03,52,13.30
2017,07,05,03,53,13.20
2017,07,05,03,54,13.20
2017,07,05,03,55,13.20
2017,07,05,03,56,13.20
2017,07,05,03,57,13.20
2017,07,05,03,58,13.20
2017,07,05,03,59,13.20
2017,07,05,04,00,13.10
2017,07,05,04,01,13.10
2017,07,05,04,02,13.10
2017,07,05,04,03,13.10
2017,07,05,04,04,13.10
2017,07,05,04,05,13.10
2017,07,05,04,06,13.10
2017,07,05,04,07,13.10
2017,07,05,04,08,13.10
2017,07,05,04,09,13.10
2017,07,05,04,10,13.10
2017,07,05,04,11,13.10
2017,07,05,04,12,13.10
2017,07,05,04,13,13.10
2017,07,05,04,14,13.10
2017,07,05,04,15,13.10
2017,07,05,04,16,13.00
2017,07,05,04,17,13.00
2017,07,05,04,18,13.00
2017,07,05,04,19,13.00
2017,07,05,04,20,13.10
2017,07,05,04,21,13.10
2017,07,05,04,22,13.10
2017,07,05,04,23,13.10
2017,07,05,04,24,13.10
2017,07,05,04,25,13.10
2017,07,05,04,26,13.10
2017,07,05,04,27,13.10
2017,07,05,04,28,13.10
2017,07,05,04,29,13.10
2017,07,05,04,30,13.10
2017,07,05,04,31,13.10
2017,07,05,04,32,13.10
2017,07,05,04,33,13.10
2017,07,05,04,34,13.10
2017,07,05,04,35,13.10
2017,07,05,04,36,13.10
2017,07,05,04,37,13.10
2017,07,05,04,38,13.00
2017,07,05,04,39,13.00
2017,07,05,04,40,13.00
2017,07,05,04,41,13.00
2017,07,05,04,42,13.00
2017,07,05,04,43,13.00
2017,07,05,04,44,13.00
2017,07,05,04,45,13.00
2017,07,05,04,46,12.90
2017,07,05,04,47,12.90
2017,07,05,04,48,12.90
2017,07,05,04,49,12.90
2017,07,05,04,50,12.90
2017,07,05,04,51,12.90
2017,07,05,04,52,12.90
2017,07,05,04,53,12.90
2017,07,05,04,54,12.90
2017,07,05,04,55,12.90
2017,07,05,04,56,12.90
2017,07,05,04,57,12.90
2017,07,05,04,58,12.80
2017,07,05,04,59,12.80
2017,07,05,05,00,12.80
2017,07,05,05,01,12.80
2017,07,05,05,02,12.80
2017,07,05,05,03,12.80
2017,07,05,05,04,12.80
2017,07,05,05,05,12.80
2017,07,05,05,06,12.80
2017,07,05,05,07,12.80
2017,07,05,05,08,12.80
2017,07,05,05,09,12.80
2017,07,05,05,10,12.80
2017,07,05,05,11,12.80
2017,07,05,05,12,12.80
2017,07,05,05,13,12.80
2017,07,05,05,14,12.80
2017,07,05,05,15,12.70
2017,07,05,05,16,12.70
2017,07,05,05,17,12.70
2017,07,05,05,18,12.70
2017,07,05,05,19,12.70
2017,07,05,05,20,12.70
2017,07,05,05,21,12.60
2017,07,05,05,22,12.60
2017,07,05,05,23,12.60
2017,07,05,05,24,12.60
2017,07,05,05,25,12.60
2017,07,05,05,26,12.60
2017,07,05,05,27,12.60
2017,07,05,05,28,12.60
2017,07,05,05,29,12.60
2017,07,05,05,30,12.50
2017,07,05,05,31,12.50
2017,07,05,05,32,12.50
2017,07,05,05,33,12.50
2017,07,05,05,34,12.50
2017,07,05,05,35,12.50
2017,07,05,05,36,12.50
2017,07,05,05,37,12.40
2017,07,05,05,38,12.40
2017,07,05,05,39,12.40
2017,07,05,05,40,12.40
2017,07,05,05,41,12.40
2017,07,05,05,42,12.40
2017,07,05,05,43,12.40
2017,07,05,05,44,12.40
2017,07,05,05,45,12.40
2017,07,05,05,46,12.40
2017,07,05,05,47,12.40
2017,07,05,05,48,12.40
2017,07,05,05,49,12.40
2017,07,05,05,50,12.40
2017,07,05,05,51,12.40
2017,07,05,05,52,12.40
2017,07,05,05,53,12.40
2017,07,05,05,54,12.40
2017,07,05,05,55,12.40
2017,07,05,05,56,12.30
2017,07,05,05,57,12.30
2017,07,05,05,58,12.30
2017,07,05,05,59,12.30
2017,07,05,06,00,12.30
2017,07,05,06,01,12.30
2017,07,05,06,02,12.40
2017,07,05,06,03,12.40
2017,07,05,06,04,12.40
2017,07,05,06,05,12.40
2017,07,05,06,06,12.40
2017,07,05,06,07,12.40
2017,07,05,06,08,12.50
2017,07,05,06,09,12.50
2017,07,05,06,10,12.50
2017,07,05,06,11,12.60
2017,07,05,06,12,12.60
2017,07,05,06,13,12.60
2017,07,05,06,14,12.70
2017,07,05,06,15,12.70
2017,07,05,06,16,12.70
2017,07,05,06,17,12.80
2017,07,05,06,18,12.80
2017,07,05,06,19,12.80
2017,07,05,06,20,12.90
2017,07,05,06,21,12.90
2017,07,05,06,22,12.90
2017,07,05,06,23,13.00
2017,07,05,06,24,13.00
2017,07,05,06,25,13.10
2017,07,05,06,26,13.10
2017,07,05,06,27,13.20
2017,07,05,06,28,13.20
2017,07,05,06,29,13.20
2017,07,05,06,30,13.30
2017,07,05,06,31,13.30
2017,07,05,06,32,13.30
2017,07,05,06,33,13.30
2017,07,05,06,34,13.30
2017,07,05,06,35,13.30
2017,07,05,06,36,13.40
2017,07,05,06,37,13.40
2017,07,05,06,38,13.40
2017,07,05,06,39,13.40
2017,07,05,06,40,13.50
2017,07,05,06,41,13.50
2017,07,05,06,42,13.50
2017,07,05,06,43,13.50
2017,07,05,06,44,13.60
2017,07,05,06,45,13.60
2017,07,05,06,46,13.70
2017,07,05,06,47,13.70
2017,07,05,06,48,13.80
2017,07,05,06,49,13.80
2017,07,05,06,50,13.90
2017,07,05,06,51,13.90
2017,07,05,06,52,13.90
2017,07,05,06,53,14.00
2017,07,05,06,54,14.00
2017,07,05,06,55,14.10
2017,07,05,06,56,14.20
2017,07,05,06,57,14.20
2017,07,05,06,58,14.30
2017,07,05,06,59,14.40
2017,07,05,07,00,14.40
2017,07,05,07,01,14.50
2017,07,05,07,02,14.60
2017,07,05,07,03,14.60
2017,07,05,07,04,14.70
2017,07,05,07,05,14.80
2017,07,05,07,06,14.90
2017,07,05,07,07,15.00
2017,07,05,07,08,15.00
2017,07,05,07,09,15.10
2017,07,05,07,10,15.30
2017,07,05,07,11,15.40
2017,07,05,07,12,15.50
2017,07,05,07,13,15.60
2017,07,05,07,14,15.70
2017,07,05,07,15,15.80
2017,07,05,07,16,15.90
2017,07,05,07,17,16.00
2017,07,05,07,18,16.10
2017,07,05,07,19,16.20
2017,07,05,07,20,16.20
2017,07,05,07,21,16.30
2017,07,05,07,22,16.40
2017,07,05,07,23,16.40
2017,07,05,07,24,16.50
2017,07,05,07,25,16.50
2017,07,05,07,26,16.60
2017,07,05,07,27,16.70
2017,07,05,07,28,16.70
2017,07,05,07,29,16.80
2017,07,05,07,30,16.90
2017,07,05,07,31,17.00
2017,07,05,07,32,17.10
2017,07,05,07,33,17.10
2017,07,05,07,34,17.20
2017,07,05,07,35,17.30
2017,07,05,07,36,17.40
2017,07,05,07,37,17.40
2017,07,05,07,38,17.50
2017,07,05,07,39,17.50
2017,07,05,07,40,17.60
2017,07,05,07,41,17.60
2017,07,05,07,42,17.70
2017,07,05,07,43,17.80
2017,07,05,07,44,17.90
2017,07,05,07,45,18.00
2017,07,05,07,46,18.00
2017,07,05,07,47,18.10
2017,07,05,07,48,18.20
2017,07,05,07,49,18.20
2017,07,05,07,50,18.30
2017,07,05,07,51,18.40
2017,07,05,07,52,18.40
2017,07,05,07,53,18.50
2017,07,05,07,54,18.60
2017,07,05,07,55,18.60
2017,07,05,07,56,18.70
2017,07,05,07,57,18.80
2017,07,05,07,58,18.80
2017,07,05,07,59,18.90
2017,07,05,08,00,18.90
2017,07,05,08,01,19.00
2017,07,05,08,02,19.10
2017,07,05,08,03,19.20
2017,07,05,08,04,19.30
2017,07,05,08,05,19.40
2017,07,05,08,06,19.50
2017,07,05,08,07,19.60
2017,07,05,08,08,19.70
2017,07,05,08,09,19.80
2017,07,05,08,10,19.90
2017,07,05,08,11,19.90
2017,07,05,08,12,19.90
2017,07,05,08,13,19.90
2017,07,05,08,14,19.90
2017,07,05,08,15,20.00
2017,07,05,08,16,20.00
2017,07,05,08,17,20.10
2017,07,05,08,18,20.20
2017,07,05,08,19,20.20
2017,07,05,08,20,20.30
2017,07,05,08,21,20.30
2017,07,05,08,22,20.40
2017,07,05,08,23,20.40
2017,07,05,08,24,20.50
2017,07,05,08,25,20.60
2017,07,05,08,26,20.60
2017,07,05,08,27,20.70
2017,07,05,08,28,20.80
2017,07,05,08,29,21.00
2017,07,05,08,30,21.10
2017,07,05,08,31,21.10
2017,07,05,08,32,21.20
2017,07,05,08,33,21.20
2017,07,05,08,34,21.20
2017,07,05,08,35,21.30
2017,07,05,08,36,21.30
2017,07,05,08,37,21.40
2017,07,05,08,38,21.40
2017,07,05,08,39,21.50
2017,07,05,08,40,21.50
2017,07,05,08,41,21.50
2017,07,05,08,42,21.50
2017,07,05,08,43,21.60
2017,07,05,08,44,21.50
2017,07,05,08,45,21.50
2017,07,05,08,46,21.40
2017,07,05,08,47,21.40
2017,07,05,08,48,21.40
2017,07,05,08,49,21.40
2017,07,05,08,50,21.40
2017,07,05,08,51,21.50
2017,07,05,08,52,21.50
2017,07,05,08,53,21.60
2017,07,05,08,54,21.70
2017,07,05,08,55,21.70
2017,07,05,08,56,21.70
2017,07,05,08,57,21.80
2017,07,05,08,58,21.80
2017,07,05,08,59,21.80
2017,07,05,09,00,21.80
2017,07,05,09,01,21.80
2017,07,05,09,02,21.80
2017,07,05,09,03,21.80
2017,07,05,09,04,21.80
2017,07,05,09,05,21.80
2017,07,05,09,06,21.80
2017,07,05,09,07,21.80
2017,07,05,09,08,21.80
2017,07,05,09,09,21.80
2017,07,05,09,10,21.80
2017,07,05,09,11,21.90
2017,07,05,09,12,21.90
2017,07,05,09,13,21.90
2017,07,05,09,14,21.90
2017,07,05,09,15,21.90
2017,07,05,09,16,21.90
2017,07,05,09,17,21.90
2017,07,05,09,18,21.90
2017,07,05,09,19,22.00
2017,07,05,09,20,22.00
2017,07,05,09,21,22.10
2017,07,05,09,22,22.10
2017,07,05,09,23,22.10
2017,07,05,09,24,22.10
2017,07,05,09,25,22.20
2017,07,05,09,26,22.20
2017,07,05,09,27,22.20
2017,07,05,09,28,22.20
2017,07,05,09,29,22.20
2017,07,05,09,30,22.20
2017,07,05,09,31,22.20
2017,07,05,09,32,22.20
2017,07,05,09,33,22.20
2017,07,05,09,34,22.20
2017,07,05,09,35,22.30
2017,07,05,09,36,22.30
2017,07,05,09,37,22.30
2017,07,05,09,38,22.40
2017,07,05,09,39,22.40
2017,07,05,09,40,22.40
2017,07,05,09,41,22.30
2017,07,05,09,42,22.30
2017,07,05,09,43,22.30
2017,07,05,09,44,22.40
2017,07,05,09,45,22.40
2017,07,05,09,46,22.40
2017,07,05,09,47,22.40
2017,07,05,09,48,22.50
2017,07,05,09,49,22.50
2017,07,05,09,50,22.50
2017,07,05,09,51,22.60
2017,07,05,09,52,22.60
2017,07,05,09,53,22.70
2017,07,05,09,54,22.70
2017,07,05,09,55,22.70
2017,07,05,09,56,22.80
2017,07,05,09,57,22.80
2017,07,05,09,58,22.70
2017,07,05,09,59,22.70
2017,07,05,10,00,22.70
2017,07,05,10,01,22.70
2017,07,05,10,02,22.80
2017,07,05,10,03,22.80
2017,07,05,10,04,22.90
2017,07,05,10,05,23.00
2017,07,05,10,06,23.10
2017,07,05,10,07,23.10
2017,07,05,10,08,23.20
2017,07,05,10,09,23.20
2017,07,05,10,10,23.20
2017,07,05,10,11,23.20
2017,07,05,10,12,23.10
2017,07,05,10,13,23.10
2017,07,05,10,14,23.00
2017,07,05,10,15,23.00
2017,07,05,10,16,23.00
2017,07,05,10,17,23.10
2017,07,05,10,18,23.10
2017,07,05,10,19,23.10
2017,07,05,10,20,23.10
2017,07,05,10,21,23.20
2017,07,05,10,22,23.20
2017,07,05,10,23,23.20
2017,07,05,10,24,23.20
2017,07,05,10,25,23.30
2017,07,05,10,26,23.30
2017,07,05,10,27,23.30
2017,07,05,10,28,23.30
2017,07,05,10,29,23.30
2017,07,05,10,30,23.30
2017,07,05,10,31,23.30
2017,07,05,10,32,23.30
2017,07,05,10,33,23.10
2017,07,05,10,34,23.00
2017,07,05,10,35,22.90
2017,07,05,10,36,22.90
2017,07,05,10,37,22.90
2017,07,05,10,38,22.80
2017,07,05,10,39,22.80
2017,07,05,10,40,22.80
2017,07,05,10,41,22.80
2017,07,05,10,42,22.80
2017,07,05,10,43,22.90
2017,07,05,10,44,23.00
2017,07,05,10,45,23.10
2017,07,05,10,46,23.20
2017,07,05,10,47,23.30
2017,07,05,10,48,23.30
2017,07,05,10,49,23.40
2017,07,05,10,50,23.50
2017,07,05,10,51,23.60
2017,07,05,10,52,23.60
2017,07,05,10,53,23.60
2017,07,05,10,54,23.70
2017,07,05,10,55,23.70
2017,07,05,10,56,23.70
2017,07,05,10,57,23.80
2017,07,05,10,58,23.90
2017,07,05,10,59,24.00
2017,07,05,11,00,24.10
2017,07,05,11,01,24.10
2017,07,05,11,02,24.20
2017,07,05,11,03,24.20
2017,07,05,11,04,24.10
2017,07,05,11,05,24.10
2017,07,05,11,06,24.10
2017,07,05,11,07,24.10
2017,07,05,11,08,24.10
2017,07,05,11,09,24.00
2017,07,05,11,10,23.90
2017,07,05,11,11,23.80
2017,07,05,11,12,23.80
2017,07,05,11,13,23.80
2017,07,05,11,14,23.80
2017,07,05,11,15,23.90
2017,07,05,11,16,23.90
2017,07,05,11,17,23.90
2017,07,05,11,18,23.90
2017,07,05,11,19,23.90
2017,07,05,11,20,23.90
2017,07,05,11,21,24.00
2017,07,05,11,22,24.10
2017,07,05,11,23,24.10
2017,07,05,11,24,24.00
2017,07,05,11,25,24.00
2017,07,05,11,26,24.00
2017,07,05,11,27,24.10
2017,07,05,11,28,24.20
2017,07,05,11,29,24.20
2017,07,05,11,30,24.20
2017,07,05,11,31,24.20
2017,07,05,11,32,24.30
2017,07,05,11,33,24.30
2017,07,05,11,34,24.30
2017,07,05,11,35,24.30
2017,07,05,11,36,24.20
2017,07,05,11,37,24.20
2017,07,05,11,38,24.10
2017,07,05,11,39,24.00
2017,07,05,11,40,23.80
2017,07,05,11,41,23.70
2017,07,05,11,42,23.60
2017,07,05,11,43,23.60
2017,07,05,11,44,23.60
2017,07,05,11,45,23.60
2017,07,05,11,46,23.60
2017,07,05,11,47,23.70
2017,07,05,11,48,23.80
2017,07,05,11,49,23.80
2017,07,05,11,50,23.90
2017,07,05,11,51,23.90
2017,07,05,11,52,23.90
2017,07,05,11,53,24.00
2017,07,05,11,54,24.00
2017,07,05,11,55,24.10
2017,07,05,11,56,24.10
2017,07,05,11,57,24.00
2017,07,05,11,58,24.00
2017,07,05,11,59,24.20
2017,07,05,12,00,24.30
2017,07,05,12,01,24.40
2017,07,05,12,02,24.50
2017,07,05,12,03,24.60
2017,07,05,12,04,24.60
2017,07,05,12,05,24.70
2017,07,05,12,06,24.70
2017,07,05,12,07,24.70
2017,07,05,12,08,24.60
2017,07,05,12,09,24.60
2017,07,05,12,10,24.60
2017,07,05,12,11,24.60
2017,07,05,12,12,24.60
2017,07,05,12,13,24.60
2017,07,05,12,14,24.70
2017,07,05,12,15,24.80
2017,07,05,12,16,24.80
2017,07,05,12,17,24.90
2017,07,05,12,18,24.90
2017,07,05,12,19,24.90
2017,07,05,12,20,24.90
2017,07,05,12,21,24.90
2017,07,05,12,22,24.90
2017,07,05,12,23,24.90
2017,07,05,12,24,24.90
2017,07,05,12,25,24.90
2017,07,05,12,26,24.90
2017,07,05,12,27,24.90
2017,07,05,12,28,24.80
2017,07,05,12,29,24.70
2017,07,05,12,30,24.60
2017,07,05,12,31,24.60
2017,07,05,12,32,24.60
2017,07,05,12,33,24.50
2017,07,05,12,34,24.40
2017,07,05,12,35,24.40
2017,07,05,12,36,24.50
2017,07,05,12,37,24.50
2017,07,05,12,38,24.50
2017,07,05,12,39,24.50
2017,07,05,12,40,24.60
2017,07,05,12,41,24.80
2017,07,05,12,42,24.90
2017,07,05,12,43,25.00
2017,07,05,12,44,25.20
2017,07,05,12,45,25.30
2017,07,05,12,46,25.40
2017,07,05,12,47,25.40
2017,07,05,12,48,25.50
2017,07,05,12,49,25.50
2017,07,05,12,50,25.50
2017,07,05,12,51,25.50
2017,07,05,12,52,25.40
2017,07,05,12,53,25.30
2017,07,05,12,54,25.20
2017,07,05,12,55,25.10
2017,07,05,12,56,25.00
2017,07,05,12,57,25.00
2017,07,05,12,58,25.00
2017,07,05,12,59,25.10
2017,07,05,13,00,25.30
2017,07,05,13,01,25.40
2017,07,05,13,02,25.50
2017,07,05,13,03,25.60
2017,07,05,13,04,25.60
2017,07,05,13,05,25.70
2017,07,05,13,06,25.70
2017,07,05,13,07,25.60
2017,07,05,13,08,25.60
2017,07,05,13,09,25.60
2017,07,05,13,10,25.50
2017,07,05,13,11,25.50
2017,07,05,13,12,25.40
2017,07,05,13,13,25.20
2017,07,05,13,14,25.10
2017,07,05,13,15,25.10
2017,07,05,13,16,25.10
2017,07,05,13,17,25.20
2017,07,05,13,18,25.20
2017,07,05,13,19,25.20
2017,07,05,13,20,25.20
2017,07,05,13,21,25.10
2017,07,05,13,22,25.10
2017,07,05,13,23,25.10
2017,07,05,13,24,25.00
2017,07,05,13,25,24.80
2017,07,05,13,26,24.70
2017,07,05,13,27,24.60
2017,07,05,13,28,24.60
2017,07,05,13,29,24.70
2017,07,05,13,30,24.90
2017,07,05,13,31,25.10
2017,07,05,13,32,25.20
2017,07,05,13,33,25.40
2017,07,05,13,34,25.50
2017,07,05,13,35,25.60
2017,07,05,13,36,25.60
2017,07,05,13,37,25.60
2017,07,05,13,38,25.60
2017,07,05,13,39,25.60
2017,07,05,13,40,25.70
2017,07,05,13,41,25.70
2017,07,05,13,42,25.70
2017,07,05,13,43,25.70
2017,07,05,13,44,25.70
2017,07,05,13,45,25.70
2017,07,05,13,46,25.70
2017,07,05,13,47,25.70
2017,07,05,13,48,25.60
2017,07,05,13,49,25.50
2017,07,05,13,50,25.50
2017,07,05,13,51,25.50
2017,07,05,13,52,25.60
2017,07,05,13,53,25.70
2017,07,05,13,54,25.80
2017,07,05,13,55,25.90
2017,07,05,13,56,25.90
2017,07,05,13,57,25.90
2017,07,05,13,58,26.00
2017,07,05,13,59,26.10
2017,07,05,14,00,26.20
2017,07,05,14,01,26.30
2017,07,05,14,02,26.40
2017,07,05,14,03,26.40
2017,07,05,14,04,26.30
2017,07,05,14,05,26.30
2017,07,05,14,06,26.20
2017,07,05,14,07,26.20
2017,07,05,14,08,26.20
2017,07,05,14,09,26.30
2017,07,05,14,10,26.20
2017,07,05,14,11,26.20
2017,07,05,14,12,26.10
2017,07,05,14,13,26.10
2017,07,05,14,14,26.10
2017,07,05,14,15,26.10
2017,07,05,14,16,26.10
2017,07,05,14,17,26.20
2017,07,05,14,18,26.30
2017,07,05,14,19,26.40
2017,07,05,14,20,26.50
2017,07,05,14,21,26.60
2017,07,05,14,22,26.60
2017,07,05,14,23,26.70
2017,07,05,14,24,26.80
2017,07,05,14,25,26.80
2017,07,05,14,26,26.80
2017,07,05,14,27,26.90
2017,07,05,14,28,26.90
2017,07,05,14,29,26.90
2017,07,05,14,30,26.90
2017,07,05,14,31,27.00
2017,07,05,14,32,27.10
2017,07,05,14,33,27.20
2017,07,05,14,34,27.30
2017,07,05,14,35,27.40
2017,07,05,14,36,27.40
2017,07,05,14,37,27.40
2017,07,05,14,38,27.40
2017,07,05,14,39,27.20
2017,07,05,14,40,27.20
2017,07,05,14,41,27.10
2017,07,05,14,42,26.90
2017,07,05,14,43,26.90
2017,07,05,14,44,26.90
2017,07,05,14,45,27.00
2017,07,05,14,46,27.00
2017,07,05,14,47,27.10
2017,07,05,14,48,27.10
2017,07,05,14,49,27.10
2017,07,05,14,50,27.10
2017,07,05,14,51,27.20
2017,07,05,14,52,27.20
2017,07,05,14,53,27.20
2017,07,05,14,54,27.10
2017,07,05,14,55,27.00
2017,07,05,14,56,26.90
2017,07,05,14,57,27.00
2017,07,05,14,58,27.00
2017,07,05,14,59,27.10
2017,07,05,15,00,27.10
2017,07,05,15,01,27.10
2017,07,05,15,02,27.20
2017,07,05,15,03,27.20
2017,07,05,15,04,27.30
2017,07,05,15,05,27.30
2017,07,05,15,06,27.40
2017,07,05,15,07,27.40
2017,07,05,15,08,27.30
2017,07,05,15,09,27.30
2017,07,05,15,10,27.30
2017,07,05,15,11,27.30
2017,07,05,15,12,27.30
2017,07,05,15,13,27.20
2017,07,05,15,14,27.20
2017,07,05,15,15,27.20
2017,07,05,15,16,27.30
2017,07,05,15,17,27.30
2017,07,05,15,18,27.30
2017,07,05,15,19,27.30
2017,07,05,15,20,27.30
2017,07,05,15,21,27.30
2017,07,05,15,22,27.40
2017,07,05,15,23,27.30
2017,07,05,15,24,27.30
2017,07,05,15,25,27.30
2017,07,05,15,26,27.30
2017,07,05,15,27,27.30
2017,07,05,15,28,27.20
2017,07,05,15,29,27.20
2017,07,05,15,30,27.20
2017,07,05,15,31,27.30
2017,07,05,15,32,27.40
2017,07,05,15,33,27.50
2017,07,05,15,34,27.40
2017,07,05,15,35,27.50
2017,07,05,15,36,27.60
2017,07,05,15,37,27.60
2017,07,05,15,38,27.60
2017,07,05,15,39,27.60
2017,07,05,15,40,27.70
2017,07,05,15,41,27.70
2017,07,05,15,42,27.70
2017,07,05,15,43,27.70
2017,07,05,15,44,27.70
2017,07,05,15,45,27.60
2017,07,05,15,46,27.60
2017,07,05,15,47,27.50
2017,07,05,15,48,27.40
2017,07,05,15,49,27.50
2017,07,05,15,50,27.60
2017,07,05,15,51,27.60
2017,07,05,15,52,27.70
2017,07,05,15,53,27.70
2017,07,05,15,54,27.70
2017,07,05,15,55,27.80
2017,07,05,15,56,27.80
2017,07,05,15,57,27.90
2017,07,05,15,58,28.00
2017,07,05,15,59,28.10
2017,07,05,16,00,28.20
2017,07,05,16,01,28.20
2017,07,05,16,02,28.20
2017,07,05,16,03,28.10
2017,07,05,16,04,28.00
2017,07,05,16,05,27.90
2017,07,05,16,06,27.80
2017,07,05,16,07,27.80
2017,07,05,16,08,27.90
2017,07,05,16,09,27.90
2017,07,05,16,10,27.90
2017,07,05,16,11,27.90
2017,07,05,16,12,27.80
2017,07,05,16,13,27.90
2017,07,05,16,14,28.00
2017,07,05,16,15,28.10
2017,07,05,16,16,28.30
2017,07,05,16,17,28.30
2017,07,05,16,18,28.30
2017,07,05,16,19,28.20
2017,07,05,16,20,28.00
2017,07,05,16,21,27.90
2017,07,05,16,22,27.90
2017,07,05,16,23,27.80
2017,07,05,16,24,27.90
2017,07,05,16,25,28.00
2017,07,05,16,26,28.10
2017,07,05,16,27,28.20
2017,07,05,16,28,28.20
2017,07,05,16,29,28.30
2017,07,05,16,30,28.30
2017,07,05,16,31,28.40
2017,07,05,16,32,28.40
2017,07,05,16,33,28.30
2017,07,05,16,34,28.30
2017,07,05,16,35,28.30
2017,07,05,16,36,28.30
2017,07,05,16,37,28.30
2017,07,05,16,38,28.30
2017,07,05,16,39,28.30
2017,07,05,16,40,28.30
2017,07,05,16,41,28.20
2017,07,05,16,42,28.20
2017,07,05,16,43,28.20
2017,07,05,16,44,28.10
2017,07,05,16,45,28.10
2017,07,05,16,46,28.10
2017,07,05,16,47,28.10
2017,07,05,16,48,28.20
2017,07,05,16,49,28.20
2017,07,05,16,50,28.20
2017,07,05,16,51,28.20
2017,07,05,16,52,28.30
2017,07,05,16,53,28.30
2017,07,05,16,54,28.40
2017,07,05,16,55,28.40
2017,07,05,16,56,28.40
2017,07,05,16,57,28.40
2017,07,05,16,58,28.30
2017,07,05,16,59,28.30
2017,07,05,17,00,28.30
2017,07,05,17,01,28.30
2017,07,05,17,02,28.30
2017,07,05,17,03,28.30
2017,07,05,17,04,28.30
2017,07,05,17,05,28.30
2017,07,05,17,06,28.30
2017,07,05,17,07,28.30
2017,07,05,17,08,28.30
2017,07,05,17,09,28.20
2017,07,05,17,10,28.20
2017,07,05,17,11,28.20
2017,07,05,17,12,28.20
2017,07,05,17,13,28.20
2017,07,05,17,14,28.20
2017,07,05,17,15,28.20
2017,07,05,17,16,28.20
2017,07,05,17,17,28.10
2017,07,05,17,18,28.10
2017,07,05,17,19,28.10